Cincinnati, OH

9:16 PM EST on December 03, 2016 (GMT -0500)
Cincinnati Municipal-Lunken

Weather History for KLUK - January, 2014

Change the Weather History Date:

Saturday, January 25, 2014

  Actual Average Record
Temperature  
Mean Temperature 25 °F -  
Max Temperature 35 °F 41 °F 74 °F (1950)
Min Temperature 14 °F 23 °F -6 °F (1961)
Degree Days  
Heating Degree Days 40    
Moisture  
Dew Point 15 °F    
Average Humidity 74    
Maximum Humidity 89    
Minimum Humidity 40    
Precipitation  
Precipitation 0.00 in - - ()
Sea Level Pressure  
Sea Level Pressure 29.72 in    
Wind  
Wind Speed 21 mph (SW)    
Max Wind Speed 31 mph    
Max Gust Speed 39 mph    
Visibility 4 miles    
Events Snow    
Averages and records for this station are not official NWS values.
T = Trace of Precipitation, MM = Missing Value Source: NWS Daily Summary

Daily Weather History Graph

Daily Weather History Graph

Search for Another Location

Airport or City:

Trip Planner

Search our weather history database for the weather conditions in past years. The results will help you decide how hot, cold, wet, or windy it might be!

Date:

Astronomy

Jan. 25, 2014 Rise Set
Actual Time 7:49 AM EST 5:50 PM EST
Civil Twilight 7:21 AM EST 6:19 PM EST
Nautical Twilight 6:48 AM EST 6:51 PM EST
Astronomical Twilight 6:17 AM EST 7:23 PM EST
Moon 2:21 AM EST (1/25) 12:50 PM EST (1/25)
Length of Visible Light 10h 57m
Length of Day
10h 00m
Waning Crescent, 34% of the Moon is Illuminated
Jan 25
Waning Crescent
Jan 30
New
Feb 6
First Quarter
Feb 14
Full
Feb 22
Last Quarter

Hourly Weather History & Observations

Time (EST) Temp. Windchill Dew Point Humidity Pressure Visibility Wind Dir Wind Speed Gust Speed Precip Events Conditions
12:53 AM 23.0 °F 5.1 °F 6.1 °F 48% 29.88 in 5.0 mi WSW 31.1 mph 38.0 mph 0.00 in Snow Light Snow
1:03 AM 21.9 °F 5.8 °F 9.0 °F 58% 29.86 in 2.0 mi SW 23.0 mph 39.1 mph 0.00 in Snow Light Snow
1:11 AM 21.9 °F 4.5 °F 12.0 °F 66% 29.86 in 2.0 mi SW 27.6 mph 35.7 mph 0.00 in Snow Light Snow
1:19 AM 21.0 °F 5.0 °F 12.9 °F 71% 29.85 in 1.2 mi SW 21.9 mph 38.0 mph 0.00 in Snow Light Snow
1:53 AM 19.9 °F 5.2 °F 16.0 °F 85% 29.86 in 0.8 mi SSW 17.3 mph 28.8 mph 0.00 in Snow Light Snow
1:59 AM 19.9 °F 5.7 °F 16.0 °F 85% 29.83 in 1.0 mi SSW 16.1 mph - 0.00 in Snow Light Snow
2:23 AM 19.9 °F 3.5 °F 16.0 °F 85% 29.80 in 1.2 mi SSW 21.9 mph - 0.00 in Snow Light Snow
2:36 AM 19.9 °F 3.9 °F 16.0 °F 85% 29.79 in 2.5 mi SSW 20.7 mph - 0.00 in Snow Light Snow
2:49 AM 21.2 °F 6.0 °F 15.8 °F 80% 29.78 in 2.5 mi SSW 19.6 mph - 0.00 in Snow Light Snow
2:53 AM 21.0 °F 5.0 °F 16.0 °F 81% 29.80 in 2.0 mi SSW 21.9 mph - 0.00 in Snow Light Snow
3:00 AM 21.0 °F 5.0 °F 16.0 °F 81% 29.77 in 1.5 mi SSW 21.9 mph 28.8 mph 0.00 in Snow Light Snow
3:25 AM 19.9 °F 4.8 °F 17.1 °F 89% 29.75 in 1.0 mi SSW 18.4 mph - 0.00 in Snow Light Snow
3:49 AM 21.2 °F 6.0 °F 17.6 °F 86% 29.73 in 1.2 mi SSW 19.6 mph - 0.00 in Snow Light Snow
3:53 AM 21.0 °F 6.2 °F 17.1 °F 85% 29.75 in 1.2 mi SSW 18.4 mph - 0.00 in Snow Light Snow
4:50 AM 21.2 °F 5.2 °F 17.6 °F 86% 29.70 in 0.8 mi SSW 21.9 mph - 0.00 in Snow Light Snow
4:53 AM 21.0 °F 6.6 °F 17.1 °F 85% 29.71 in 0.8 mi SSW 17.3 mph - 0.00 in Snow Light Snow
5:13 AM 21.0 °F 6.2 °F 17.1 °F 85% 29.67 in 1.2 mi SSW 18.4 mph - 0.00 in Snow Light Snow
5:23 AM 21.0 °F 6.2 °F 17.1 °F 85% 29.67 in 1.5 mi SSW 18.4 mph - 0.00 in Snow Light Snow
5:34 AM 21.0 °F 6.2 °F 17.1 °F 85% 29.67 in 2.0 mi SSW 18.4 mph - 0.00 in Snow Light Snow
5:43 AM 21.0 °F 5.7 °F 17.1 °F 85% 29.67 in 1.5 mi SSW 19.6 mph - 0.00 in Snow Light Snow
5:53 AM 21.0 °F 5.7 °F 17.1 °F 85% 29.69 in 1.0 mi SSW 19.6 mph - 0.00 in Snow Light Snow
6:15 AM 21.9 °F 7.8 °F 18.0 °F 85% 29.65 in 1.0 mi SSW 17.3 mph - 0.00 in Snow Light Snow
6:36 AM 21.9 °F 7.3 °F 18.0 °F 85% 29.65 in 0.8 mi SSW 18.4 mph 25.3 mph 0.00 in Snow Light Snow
6:50 AM 21.2 °F 6.8 °F 17.6 °F 86% 29.65 in 1.0 mi SSW 17.3 mph - 0.00 in Snow Light Snow
6:53 AM 21.9 °F 7.8 °F 18.0 °F 85% 29.66 in 1.0 mi SSW 17.3 mph - 0.00 in Snow Light Snow
7:22 AM 21.9 °F 7.3 °F 18.0 °F 85% 29.64 in 3.0 mi SSW 18.4 mph 26.5 mph 0.00 in Snow Light Snow
7:38 AM 23.0 °F 8.3 °F 18.0 °F 81% 29.63 in 2.0 mi SW 19.6 mph 29.9 mph 0.00 in Snow Light Snow
7:45 AM 23.0 °F 7.6 °F 18.0 °F 81% 29.63 in 1.2 mi SSW 21.9 mph - 0.00 in Snow Snow
7:53 AM 23.0 °F 8.3 °F 19.0 °F 85% 29.65 in 1.2 mi SW 19.6 mph 25.3 mph 0.00 in Snow Snow
8:19 AM 23.0 °F 8.0 °F 19.0 °F 85% 29.62 in 0.8 mi SSW 20.7 mph - 0.00 in Snow Snow
8:32 AM 23.0 °F 8.3 °F 19.0 °F 85% 29.61 in 1.2 mi SSW 19.6 mph - 0.00 in Snow Snow
8:55 AM 24.8 °F 10.0 °F 19.4 °F 80% 29.62 in 2.0 mi SW 21.9 mph - 0.00 in Snow Light Snow
9:00 AM 24.1 °F 8.7 °F 19.0 °F 81% 29.63 in 2.0 mi SW 23.0 mph - 0.00 in Snow Light Snow
9:50 AM 24.8 °F 10.0 °F 19.4 °F 80% 29.60 in 8.0 mi SW 21.9 mph 27.6 mph 0.00 in   Overcast
9:53 AM 25.0 °F 10.9 °F 19.9 °F 81% 29.62 in 8.0 mi SW 19.6 mph 27.6 mph 0.00 in   Overcast
10:53 AM 28.0 °F 14.9 °F 21.9 °F 78% 29.61 in 10.0 mi SW 19.6 mph 25.3 mph N/A   Overcast
11:53 AM 30.0 °F 19.1 °F 23.0 °F 75% 29.60 in 10.0 mi SW 15.0 mph - N/A   Overcast
12:53 PM 35.1 °F 22.5 °F 21.0 °F 57% 29.57 in 10.0 mi West 26.5 mph 33.4 mph N/A   Mostly Cloudy
1:53 PM 33.1 °F 21.9 °F 26.1 °F 75% 29.56 in 10.0 mi WSW 18.4 mph 27.6 mph N/A   Partly Cloudy
2:42 PM 32.0 °F 23.6 °F 25.0 °F 75% 29.57 in 3.0 mi West 10.4 mph 25.3 mph 0.00 in Snow Light Snow
2:53 PM 33.1 °F 23.0 °F 21.0 °F 61% 29.58 in 8.0 mi WNW 15.0 mph 31.1 mph 0.00 in   Mostly Cloudy
3:53 PM 32.0 °F 19.5 °F 10.0 °F 40% 29.64 in 10.0 mi West 21.9 mph 36.8 mph N/A   Partly Cloudy
4:53 PM 27.0 °F 15.2 °F 10.0 °F 49% 29.73 in 6.0 mi WNW 15.0 mph 38.0 mph 0.00 in Snow Blowing Snow
5:53 PM 24.1 °F 12.5 °F 5.0 °F 44% 29.79 in 10.0 mi NW 12.7 mph - N/A Snow Blowing Snow
6:53 PM 21.0 °F 7.6 °F 5.0 °F 50% 29.86 in 10.0 mi WNW 15.0 mph 25.3 mph N/A   Clear
7:53 PM 19.0 °F 6.8 °F 5.0 °F 54% 29.91 in 10.0 mi WNW 11.5 mph 17.3 mph N/A   Clear
8:53 PM 18.0 °F 6.9 °F 3.0 °F 52% 29.94 in 10.0 mi WNW 9.2 mph 21.9 mph N/A   Clear
9:53 PM 16.0 °F 1.7 °F 1.9 °F 54% 29.96 in 10.0 mi West 13.8 mph - N/A   Clear
10:53 PM 15.1 °F 3.3 °F 1.0 °F 54% 29.97 in 10.0 mi West 9.2 mph 20.7 mph N/A   Clear
11:53 PM 14.0 °F 0.5 °F -0.9 °F 52% 29.97 in 10.0 mi West 11.5 mph - N/A   Clear